Wetterdaten: Donnerstag, 15.01.2015
Datum Zeit Temp. A. Feuchte A. Luftdruck Regen Wind Richtung Richtung Sonnenschein ET UV Solar Taupunkt Windchill Windben Empfang
15.01.2015 00:00 3,2 C 65 % 1020,9 hPa 0,0 l/m 4,7 km/h (1 Bft) W-SW 252 0 min 0,000 mm 0,0 UV-I 0 W/m -2,7 C 3,2 C 7,9 km/h (2 Bft) 0,00 %
15.01.2015 00:15 3,0 C 66 % 1021,3 hPa 0,0 l/m 1,4 km/h (1 Bft) W-SW 256 0 min 0,000 mm 0,0 UV-I 0 W/m -2,7 C 3,0 C 4,0 km/h (1 Bft) 0,00 %
15.01.2015 00:30 2,9 C 66 % 1021,3 hPa 0,0 l/m 11,5 km/h (2 Bft) W-SW 255 0 min 0,000 mm 0,0 UV-I 0 W/m -2,8 C -1,3 C 15,8 km/h (3 Bft) 0,00 %
15.01.2015 00:45 2,7 C 66 % 1021,1 hPa 0,0 l/m 0,0 km/h (0 Bft) S-SW 198 0 min 0,000 mm 0,0 UV-I 0 W/m -3,0 C 2,7 C 0,0 km/h (0 Bft) 0,00 %
15.01.2015 01:00 2,7 C 68 % 1021,1 hPa 0,0 l/m 0,0 km/h (0 Bft) S 172 0 min 0,000 mm 0,0 UV-I 0 W/m -2,6 C 2,7 C 0,0 km/h (0 Bft) 0,00 %
15.01.2015 01:15 2,4 C 66 % 1021,2 hPa 0,0 l/m 0,4 km/h (0 Bft) W-SW 237 0 min 0,000 mm 0,0 UV-I 0 W/m -3,3 C 2,4 C 4,0 km/h (1 Bft) 0,00 %
15.01.2015 01:30 2,4 C 66 % 1020,7 hPa 0,0 l/m 1,8 km/h (1 Bft) W-SW 251 0 min 0,000 mm 0,0 UV-I 0 W/m -3,3 C 2,4 C 4,0 km/h (1 Bft) 0,00 %
15.01.2015 01:45 2,0 C 68 % 1020,9 hPa 0,0 l/m 0,0 km/h (0 Bft) SW 215 0 min 0,000 mm 0,0 UV-I 0 W/m -3,3 C 2,0 C 0,0 km/h (0 Bft) 0,00 %
15.01.2015 02:00 1,7 C 68 % 1021,0 hPa 0,0 l/m 0,0 km/h (0 Bft) S-SW 192 0 min 0,000 mm 0,0 UV-I 0 W/m -3,6 C 1,7 C 0,0 km/h (0 Bft) 0,00 %
15.01.2015 02:15 1,7 C 68 % 1020,9 hPa 0,0 l/m 0,0 km/h (0 Bft) S-SW 194 0 min 0,000 mm 0,0 UV-I 0 W/m -3,6 C 1,7 C 0,0 km/h (0 Bft) 0,00 %
15.01.2015 02:30 1,7 C 69 % 1020,9 hPa 0,0 l/m 0,0 km/h (0 Bft) SW 215 0 min 0,000 mm 0,0 UV-I 0 W/m -3,4 C 1,7 C 0,0 km/h (0 Bft) 0,00 %
15.01.2015 02:45 1,7 C 69 % 1020,6 hPa 0,0 l/m 0,0 km/h (0 Bft) SW 220 0 min 0,000 mm 0,0 UV-I 0 W/m -3,4 C 1,7 C 0,0 km/h (0 Bft) 0,00 %
15.01.2015 03:00 1,6 C 70 % 1020,2 hPa 0,0 l/m 0,0 km/h (0 Bft) S-SW 202 0 min 0,000 mm 0,0 UV-I 0 W/m -3,3 C 1,6 C 0,0 km/h (0 Bft) 0,00 %
15.01.2015 03:15 1,0 C 72 % 1020,2 hPa 0,0 l/m 0,0 km/h (0 Bft) S 175 0 min 0,000 mm 0,0 UV-I 0 W/m -3,5 C 1,0 C 0,0 km/h (0 Bft) 0,00 %
15.01.2015 03:30 0,7 C 72 % 1020,2 hPa 0,0 l/m 0,0 km/h (0 Bft) S-SW 200 0 min 0,000 mm 0,0 UV-I 0 W/m -3,8 C 0,7 C 0,0 km/h (0 Bft) 0,00 %
15.01.2015 03:45 0,4 C 74 % 1019,9 hPa 0,0 l/m 0,4 km/h (0 Bft) S 172 0 min 0,000 mm 0,0 UV-I 0 W/m -3,7 C 0,4 C 4,0 km/h (1 Bft) 0,00 %
15.01.2015 04:00 -0,1 C 76 % 1019,8 hPa 0,0 l/m 0,4 km/h (0 Bft) SO 133 0 min 0,000 mm 0,0 UV-I 0 W/m -3,8 C -0,1 C 4,0 km/h (1 Bft) 0,00 %
15.01.2015 04:15 -0,3 C 77 % 1019,5 hPa 0,0 l/m 0,0 km/h (0 Bft) S 183 0 min 0,000 mm 0,0 UV-I 0 W/m -3,8 C -0,3 C 0,0 km/h (0 Bft) 0,00 %
15.01.2015 04:30 -0,2 C 78 % 1019,4 hPa 0,0 l/m 0,0 km/h (0 Bft) S 175 0 min 0,000 mm 0,0 UV-I 0 W/m -3,6 C -0,2 C 0,0 km/h (0 Bft) 0,00 %
15.01.2015 04:45 -0,3 C 79 % 1019,4 hPa 0,0 l/m 0,0 km/h (0 Bft) SW 221 0 min 0,000 mm 0,0 UV-I 0 W/m -3,5 C -0,3 C 0,0 km/h (0 Bft) 0,00 %
15.01.2015 05:00 -0,7 C 80 % 1019,2 hPa 0,0 l/m 0,0 km/h (0 Bft) SW 221 0 min 0,000 mm 0,0 UV-I 0 W/m -3,7 C -0,7 C 0,0 km/h (0 Bft) 0,00 %
15.01.2015 05:15 -1,2 C 81 % 1019,1 hPa 0,0 l/m 0,0 km/h (0 Bft) SW 224 0 min 0,000 mm 0,0 UV-I 0 W/m -4,0 C -1,2 C 0,0 km/h (0 Bft) 0,00 %
15.01.2015 05:30 -0,7 C 81 % 1018,7 hPa 0,0 l/m 0,7 km/h (0 Bft) SO 124 0 min 0,000 mm 0,0 UV-I 0 W/m -3,5 C -0,7 C 4,0 km/h (1 Bft) 0,00 %
15.01.2015 05:45 -0,5 C 79 % 1018,7 hPa 0,0 l/m 4,0 km/h (1 Bft) O-SO 123 0 min 0,000 mm 0,0 UV-I 0 W/m -3,7 C -0,5 C 4,0 km/h (1 Bft) 0,00 %
15.01.2015 06:00 -0,4 C 79 % 1018,8 hPa 0,0 l/m 0,0 km/h (0 Bft) SO 141 0 min 0,000 mm 0,0 UV-I 0 W/m -3,6 C -0,4 C 0,0 km/h (0 Bft) 0,00 %
15.01.2015 06:15 -0,2 C 77 % 1018,6 hPa 0,0 l/m 0,0 km/h (0 Bft) S-SW 205 0 min 0,000 mm 0,0 UV-I 0 W/m -3,7 C -0,2 C 0,0 km/h (0 Bft) 0,00 %
15.01.2015 06:30 0,1 C 75 % 1018,1 hPa 0,0 l/m 0,0 km/h (0 Bft) S-SW 209 0 min 0,000 mm 0,0 UV-I 0 W/m -3,8 C 0,1 C 0,0 km/h (0 Bft) 0,00 %
15.01.2015 06:45 -0,1 C 75 % 1018,0 hPa 0,0 l/m 0,7 km/h (0 Bft) O 94 0 min 0,000 mm 0,0 UV-I 0 W/m -4,0 C -0,1 C 4,0 km/h (1 Bft) 0,00 %
15.01.2015 07:00 -0,1 C 75 % 1018,0 hPa 0,0 l/m 3,2 km/h (1 Bft) O-NO 76 0 min 0,000 mm 0,0 UV-I 0 W/m -4,0 C -0,1 C 7,9 km/h (2 Bft) 0,00 %
15.01.2015 07:15 -0,3 C 76 % 1017,7 hPa 0,0 l/m 1,4 km/h (1 Bft) SO 135 0 min 0,000 mm 0,0 UV-I 0 W/m -4,0 C -0,3 C 4,0 km/h (1 Bft) 0,00 %
15.01.2015 07:30 -0,5 C 77 % 1017,5 hPa 0,0 l/m 3,2 km/h (1 Bft) O-SO 102 0 min 0,000 mm 0,0 UV-I 0 W/m -4,0 C -0,5 C 7,9 km/h (2 Bft) 0,00 %
15.01.2015 07:45 -0,2 C 76 % 1017,4 hPa 0,0 l/m 5,4 km/h (1 Bft) O-SO 115 0 min 0,000 mm 0,0 UV-I 0 W/m -3,9 C -0,2 C 7,9 km/h (2 Bft) 0,00 %
15.01.2015 08:00 -0,3 C 76 % 1017,0 hPa 0,0 l/m 4,3 km/h (1 Bft) O 100 0 min 0,000 mm 0,0 UV-I 2 W/m -4,0 C -0,3 C 7,9 km/h (2 Bft) 0,00 %
15.01.2015 08:15 -0,2 C 76 % 1016,9 hPa 0,0 l/m 7,2 km/h (2 Bft) O-SO 112 0 min 0,000 mm 0,0 UV-I 16 W/m -3,9 C -1,0 C 7,9 km/h (2 Bft) 0,00 %
15.01.2015 08:30 -0,4 C 76 % 1016,9 hPa 0,0 l/m 5,4 km/h (1 Bft) O-SO 103 0 min 0,000 mm 0,0 UV-I 32 W/m -4,1 C -0,4 C 7,9 km/h (2 Bft) 0,00 %
15.01.2015 08:45 -0,2 C 76 % 1016,6 hPa 0,0 l/m 5,4 km/h (1 Bft) O-SO 114 0 min 0,000 mm 0,0 UV-I 57 W/m -3,9 C -0,2 C 7,9 km/h (2 Bft) 0,00 %
15.01.2015 09:00 0,1 C 75 % 1016,7 hPa 0,0 l/m 0,4 km/h (0 Bft) O-SO 122 0 min 0,000 mm 1,0 UV-I 72 W/m -3,8 C 0,1 C 4,0 km/h (1 Bft) 0,00 %
15.01.2015 09:15 0,2 C 75 % 1016,5 hPa 0,0 l/m 0,0 km/h (0 Bft) NO 56 0 min 0,000 mm 1,0 UV-I 66 W/m -3,7 C 0,2 C 0,0 km/h (0 Bft) 0,00 %
15.01.2015 09:30 0,2 C 75 % 1016,4 hPa 0,0 l/m 0,0 km/h (0 Bft) O-SO 104 0 min 0,000 mm 1,0 UV-I 65 W/m -3,7 C 0,2 C 0,0 km/h (0 Bft) 0,00 %
15.01.2015 09:45 0,4 C 73 % 1016,0 hPa 0,0 l/m 0,0 km/h (0 Bft) S 176 0 min 0,000 mm 1,0 UV-I 84 W/m -3,9 C 0,4 C 0,0 km/h (0 Bft) 0,00 %
15.01.2015 10:00 0,8 C 71 % 1016,1 hPa 0,0 l/m 4,3 km/h (1 Bft) O-SO 116 0 min 0,000 mm 1,0 UV-I 111 W/m -3,8 C 0,8 C 7,9 km/h (2 Bft) 0,00 %
15.01.2015 10:15 1,2 C 70 % 1015,9 hPa 0,0 l/m 0,0 km/h (0 Bft) S 180 0 min 0,000 mm 1,0 UV-I 106 W/m -3,7 C 1,2 C 0,0 km/h (0 Bft) 0,00 %
15.01.2015 10:30 1,1 C 70 % 1015,8 hPa 0,0 l/m 0,0 km/h (0 Bft) SO 141 0 min 0,000 mm 1,0 UV-I 136 W/m -3,7 C 1,1 C 0,0 km/h (0 Bft) 0,00 %
15.01.2015 10:45 1,4 C 69 % 1015,7 hPa 0,0 l/m 0,0 km/h (0 Bft) S 184 0 min 0,000 mm 1,0 UV-I 106 W/m -3,7 C 1,4 C 0,0 km/h (0 Bft) 0,00 %
15.01.2015 11:00 1,3 C 70 % 1015,5 hPa 0,0 l/m 0,0 km/h (0 Bft) SO 133 0 min 0,000 mm 1,0 UV-I 81 W/m -3,6 C 1,3 C 0,0 km/h (0 Bft) 0,00 %
15.01.2015 11:15 1,2 C 71 % 1014,9 hPa 0,0 l/m 2,2 km/h (1 Bft) O-SO 118 0 min 0,000 mm 1,0 UV-I 100 W/m -3,5 C 1,2 C 4,0 km/h (1 Bft) 0,00 %
15.01.2015 11:30 1,5 C 70 % 1015,0 hPa 0,0 l/m 0,0 km/h (0 Bft) S-SW 209 0 min 0,000 mm 1,0 UV-I 130 W/m -3,4 C 1,5 C 0,0 km/h (0 Bft) 0,00 %
15.01.2015 11:45 2,0 C 68 % 1014,7 hPa 0,0 l/m 0,0 km/h (0 Bft) O-NO 72 0 min 0,000 mm 1,0 UV-I 146 W/m -3,3 C 2,0 C 0,0 km/h (0 Bft) 0,00 %
15.01.2015 12:00 2,4 C 72 % 1014,6 hPa 0,0 l/m 0,0 km/h (0 Bft) NW 314 15 min 0,000 mm 2,0 UV-I 199 W/m -2,1 C 2,4 C 0,0 km/h (0 Bft) 0,00 %
15.01.2015 12:15 2,7 C 70 % 1014,4 hPa 0,0 l/m 0,4 km/h (0 Bft) O-SO 109 15 min 0,000 mm 2,0 UV-I 205 W/m -2,2 C 2,7 C 4,0 km/h (1 Bft) 0,00 %
15.01.2015 12:30 2,6 C 71 % 1014,0 hPa 0,0 l/m 3,2 km/h (1 Bft) O-SO 112 15 min 0,000 mm 2,0 UV-I 210 W/m -2,1 C 2,6 C 7,9 km/h (2 Bft) 0,00 %
15.01.2015 12:45 3,1 C 69 % 1013,5 hPa 0,0 l/m 1,4 km/h (1 Bft) O 91 15 min 0,000 mm 2,0 UV-I 215 W/m -2,0 C 3,1 C 4,0 km/h (1 Bft) 0,00 %
15.01.2015 13:00 3,3 C 69 % 1013,0 hPa 0,0 l/m 4,3 km/h (1 Bft) O 100 15 min 0,000 mm 1,0 UV-I 220 W/m -1,8 C 3,3 C 7,9 km/h (2 Bft) 0,00 %
15.01.2015 13:15 3,5 C 68 % 1012,7 hPa 0,0 l/m 0,0 km/h (0 Bft) S-SO 148 15 min 0,000 mm 1,0 UV-I 222 W/m -1,8 C 3,5 C 0,0 km/h (0 Bft) 0,00 %
15.01.2015 13:30 3,6 C 67 % 1012,6 hPa 0,0 l/m 4,7 km/h (1 Bft) O-SO 112 15 min 0,000 mm 1,0 UV-I 233 W/m -1,9 C 3,6 C 7,9 km/h (2 Bft) 0,00 %
15.01.2015 13:45 3,6 C 68 % 1012,0 hPa 0,0 l/m 0,0 km/h (0 Bft) S 172 15 min 0,000 mm 1,0 UV-I 222 W/m -1,7 C 3,6 C 0,0 km/h (0 Bft) 0,00 %
15.01.2015 14:00 3,8 C 67 % 1012,2 hPa 0,0 l/m 1,8 km/h (1 Bft) O-SO 107 15 min 0,000 mm 1,0 UV-I 211 W/m -1,8 C 3,8 C 4,0 km/h (1 Bft) 0,00 %
15.01.2015 14:15 3,8 C 68 % 1012,1 hPa 0,0 l/m 0,0 km/h (0 Bft) NO 37 15 min 0,000 mm 1,0 UV-I 233 W/m -1,6 C 3,8 C 0,0 km/h (0 Bft) 0,00 %
15.01.2015 14:30 3,7 C 68 % 1011,9 hPa 0,0 l/m 0,0 km/h (0 Bft) S 188 0 min 0,000 mm 1,0 UV-I 99 W/m -1,6 C 3,7 C 0,0 km/h (0 Bft) 0,00 %
15.01.2015 14:45 3,7 C 69 % 1011,6 hPa 0,0 l/m 0,0 km/h (0 Bft) S-SW 203 0 min 0,000 mm 1,0 UV-I 102 W/m -1,4 C 3,7 C 0,0 km/h (0 Bft) 0,00 %
15.01.2015 15:00 3,8 C 71 % 1011,7 hPa 0,0 l/m 0,0 km/h (0 Bft) W-SW 255 0 min 0,000 mm 1,0 UV-I 95 W/m -1,0 C 3,8 C 0,0 km/h (0 Bft) 0,00 %
15.01.2015 15:15 3,7 C 70 % 1011,7 hPa 0,0 l/m 0,0 km/h (0 Bft) S-SW 205 0 min 0,000 mm 1,0 UV-I 87 W/m -1,3 C 3,7 C 0,0 km/h (0 Bft) 0,00 %
15.01.2015 15:30 4,0 C 70 % 1011,8 hPa 0,0 l/m 0,0 km/h (0 Bft) S-SW 192 15 min 0,000 mm 1,0 UV-I 79 W/m -1,0 C 4,0 C 0,0 km/h (0 Bft) 0,00 %
15.01.2015 15:45 3,7 C 71 % 1011,6 hPa 0,0 l/m 0,0 km/h (0 Bft) S 186 0 min 0,000 mm 0,0 UV-I 42 W/m -1,1 C 3,7 C 0,0 km/h (0 Bft) 0,00 %
15.01.2015 16:00 3,6 C 72 % 1011,5 hPa 0,0 l/m 1,8 km/h (1 Bft) O 94 0 min 0,000 mm 0,0 UV-I 29 W/m -1,0 C 3,6 C 4,0 km/h (1 Bft) 0,00 %
15.01.2015 16:15 3,2 C 73 % 1011,4 hPa 0,0 l/m 0,7 km/h (0 Bft) SO 142 0 min 0,000 mm 0,0 UV-I 12 W/m -1,2 C 3,2 C 4,0 km/h (1 Bft) 0,00 %
15.01.2015 16:30 2,8 C 73 % 1011,1 hPa 0,0 l/m 0,0 km/h (0 Bft) S 190 0 min 0,000 mm 0,0 UV-I 0 W/m -1,5 C 2,8 C 0,0 km/h (0 Bft) 0,00 %
15.01.2015 16:45 2,7 C 74 % 1011,3 hPa 0,0 l/m 0,0 km/h (0 Bft) S-SW 207 0 min 0,000 mm 0,0 UV-I 0 W/m -1,5 C 2,7 C 0,0 km/h (0 Bft) 0,00 %
15.01.2015 17:00 2,6 C 74 % 1011,2 hPa 0,0 l/m 0,0 km/h (0 Bft) S-SW 192 0 min 0,000 mm 0,0 UV-I 0 W/m -1,6 C 2,6 C 0,0 km/h (0 Bft) 0,00 %
15.01.2015 17:15 2,3 C 71 % 1011,1 hPa 0,0 l/m 0,0 km/h (0 Bft) S-SW 194 0 min 0,000 mm 0,0 UV-I 0 W/m -2,4 C 2,3 C 0,0 km/h (0 Bft) 0,00 %
15.01.2015 17:30 1,9 C 73 % 1011,2 hPa 0,0 l/m 0,0 km/h (0 Bft) S 180 0 min 0,000 mm 0,0 UV-I 0 W/m -2,4 C 1,9 C 0,0 km/h (0 Bft) 0,00 %
15.01.2015 17:45 1,6 C 75 % 1011,3 hPa 0,0 l/m 0,0 km/h (0 Bft) S-SW 196 0 min 0,000 mm 0,0 UV-I 0 W/m -2,3 C 1,6 C 0,0 km/h (0 Bft) 0,00 %
15.01.2015 18:00 1,3 C 76 % 1011,5 hPa 0,0 l/m 0,0 km/h (0 Bft) S-SW 207 0 min 0,000 mm 0,0 UV-I 0 W/m -2,5 C 1,3 C 0,0 km/h (0 Bft) 0,00 %
15.01.2015 18:15 1,0 C 77 % 1011,2 hPa 0,0 l/m 0,0 km/h (0 Bft) S 173 0 min 0,000 mm 0,0 UV-I 0 W/m -2,6 C 1,0 C 0,0 km/h (0 Bft) 0,00 %
15.01.2015 18:30 1,2 C 75 % 1011,3 hPa 0,0 l/m 0,0 km/h (0 Bft) S 172 0 min 0,000 mm 0,0 UV-I 0 W/m -2,7 C 1,2 C 0,0 km/h (0 Bft) 0,00 %
15.01.2015 18:45 1,2 C 75 % 1011,3 hPa 0,0 l/m 0,0 km/h (0 Bft) S 175 0 min 0,000 mm 0,0 UV-I 0 W/m -2,7 C 1,2 C 0,0 km/h (0 Bft) 0,00 %
15.01.2015 19:00 1,0 C 76 % 1011,1 hPa 0,0 l/m 0,4 km/h (0 Bft) S-SO 163 0 min 0,000 mm 0,0 UV-I 0 W/m -2,7 C 1,0 C 4,0 km/h (1 Bft) 0,00 %
15.01.2015 19:15 1,2 C 75 % 1010,9 hPa 0,0 l/m 0,4 km/h (0 Bft) S 172 0 min 0,000 mm 0,0 UV-I 0 W/m -2,7 C 1,2 C 4,0 km/h (1 Bft) 0,00 %
15.01.2015 19:30 1,2 C 74 % 1010,8 hPa 0,0 l/m 0,0 km/h (0 Bft) S 175 0 min 0,000 mm 0,0 UV-I 0 W/m -2,9 C 1,2 C 0,0 km/h (0 Bft) 0,00 %
15.01.2015 19:45 0,7 C 76 % 1010,8 hPa 0,0 l/m 0,0 km/h (0 Bft) O-NO 78 0 min 0,000 mm 0,0 UV-I 0 W/m -3,0 C 0,7 C 0,0 km/h (0 Bft) 0,00 %
15.01.2015 20:00 0,6 C 77 % 1010,8 hPa 0,0 l/m 0,0 km/h (0 Bft) S 173 0 min 0,000 mm 0,0 UV-I 0 W/m -3,0 C 0,6 C 0,0 km/h (0 Bft) 0,00 %
15.01.2015 20:15 0,4 C 78 % 1010,4 hPa 0,0 l/m 0,0 km/h (0 Bft) S-SW 207 0 min 0,000 mm 0,0 UV-I 0 W/m -3,0 C 0,4 C 0,0 km/h (0 Bft) 0,00 %
15.01.2015 20:30 0,3 C 78 % 1010,6 hPa 0,0 l/m 0,0 km/h (0 Bft) S-SW 197 0 min 0,000 mm 0,0 UV-I 0 W/m -3,1 C 0,3 C 0,0 km/h (0 Bft) 0,00 %
15.01.2015 20:45 0,2 C 78 % 1010,6 hPa 0,0 l/m 0,0 km/h (0 Bft) S 177 0 min 0,000 mm 0,0 UV-I 0 W/m -3,2 C 0,2 C 0,0 km/h (0 Bft) 0,00 %
15.01.2015 21:00 0,5 C 77 % 1010,1 hPa 0,0 l/m 4,0 km/h (1 Bft) O-SO 113 0 min 0,000 mm 0,0 UV-I 0 W/m -3,1 C 0,5 C 7,9 km/h (2 Bft) 0,00 %
15.01.2015 21:15 1,1 C 75 % 1010,0 hPa 0,0 l/m 1,4 km/h (1 Bft) SO 133 0 min 0,000 mm 0,0 UV-I 0 W/m -2,8 C 1,1 C 4,0 km/h (1 Bft) 0,00 %
15.01.2015 21:30 1,1 C 75 % 1010,0 hPa 0,0 l/m 0,0 km/h (0 Bft) S 183 0 min 0,000 mm 0,0 UV-I 0 W/m -2,8 C 1,1 C 0,0 km/h (0 Bft) 0,00 %
15.01.2015 21:45 1,0 C 75 % 1009,8 hPa 0,0 l/m 0,0 km/h (0 Bft) W-SW 255 0 min 0,000 mm 0,0 UV-I 0 W/m -2,9 C 1,0 C 0,0 km/h (0 Bft) 0,00 %
15.01.2015 22:00 0,8 C 76 % 1009,7 hPa 0,0 l/m 0,4 km/h (0 Bft) SO 128 0 min 0,000 mm 0,0 UV-I 0 W/m -2,9 C 0,8 C 4,0 km/h (1 Bft) 0,00 %
15.01.2015 22:15 0,7 C 77 % 1009,9 hPa 0,0 l/m 0,0 km/h (0 Bft) SW 215 0 min 0,000 mm 0,0 UV-I 0 W/m -2,9 C 0,7 C 0,0 km/h (0 Bft) 0,00 %
15.01.2015 22:30 0,6 C 78 % 1009,8 hPa 0,0 l/m 0,0 km/h (0 Bft) SW 229 0 min 0,000 mm 0,0 UV-I 0 W/m -2,8 C 0,6 C 0,0 km/h (0 Bft) 0,00 %
15.01.2015 22:45 0,3 C 80 % 1010,0 hPa 0,0 l/m 0,0 km/h (0 Bft) W-SW 251 0 min 0,000 mm 0,0 UV-I 0 W/m -2,7 C 0,3 C 0,0 km/h (0 Bft) 0,00 %
15.01.2015 23:00 -0,1 C 80 % 1009,8 hPa 0,0 l/m 0,0 km/h (0 Bft) NO 34 0 min 0,000 mm 0,0 UV-I 0 W/m -3,1 C -0,1 C 0,0 km/h (0 Bft) 0,00 %
15.01.2015 23:15 0,1 C 80 % 1009,9 hPa 0,0 l/m 0,0 km/h (0 Bft) S-SW 209 0 min 0,000 mm 0,0 UV-I 0 W/m -2,9 C 0,1 C 0,0 km/h (0 Bft) 0,00 %
15.01.2015 23:30 -0,1 C 80 % 1010,0 hPa 0,0 l/m 0,0 km/h (0 Bft) SW 217 0 min 0,000 mm 0,0 UV-I 0 W/m -3,1 C -0,1 C 0,0 km/h (0 Bft) 0,00 %
15.01.2015 23:45 -0,3 C 80 % 1010,1 hPa 0,0 l/m 0,0 km/h (0 Bft) S-SW 197 0 min 0,000 mm 0,0 UV-I 0 W/m -3,3 C -0,3 C 0,0 km/h (0 Bft) 0,00 %
_ Min-Zeit 05:15 00:00 22:00 - 00:45 - - - - - - 08:30 00:30 00:45 00:00
Minimum _ -1,2 C 65 % 1009,7 hPa - 0,0 km/h (0 Bft) - - - - - - -4,1 C -1,3 C 0,0 km/h (0 Bft) 0,00 %
_ Max-Zeit 15:30 05:15 00:15 00:00 00:30 - - 12:00 00:00 12:00 13:30 15:00 15:30 00:30 00:00
Maximum _ 4,0 C 81 % 1021,3 hPa 0,0 l/m 11,5 km/h
W-SW (2 Bft)
- - 15 min 0,000 mm 2,0 UV-I 233 W/m -1,0 C 4,0 C 15,8 km/h
W-SW (3 Bft)
0,00 %
Durchschnitt _ 1,3 C 73 % 1014,8 hPa #0,0 l/m 0,9 km/h (0 Bft) O-SO - #2:45 h #0,000 mm 1,1 UV-I 118 W/m -2,9 C 1,3 C 2,0 km/h (1 Bft) 0,00 %